GORIZONT 5 (13092 NORAD) Tracking and Keplerian Element Data

This shows tracking and keplerian element data for the satellite.

Feedback or suggestion? Click here.




ElementValue
Catalog13092
NameGORIZONT 5
Epoch Orbit11668
Epoch Day34.63971581
Epoch Year2025
RAAN305.1899
Inclination9.4622
Eccentricity0.0032897
Argument of Perigee243.454
Mean Anonmoly315.2458
Mean Motion0.9853368
Decay Rate-2.12E-06
L11 13092U 82020A 25034.63971581 -.00000212 00000+0 00000+0 0 9995
L22 13092 9.4622 305.1899 0032897 243.4540 315.2458 0.98533680116688



Live tracking and technical data element details for GORIZONT 5 (NORAD 13092). GORIZONT 5 can be tracked NOW for your location showing map with azimuth and elevation plus other details from your city location.







IsCatalogInMostPopularTable: catalog: 13092, numindb: 409
Update: records affected: 1



GetName: 13092 GORIZONT 5

Hit Count: updated at: Thu, 15 May 2025 09:22:58 GMT